Location: *
(44.3683°N, 6.6958°E)
Time: 07:10:20
(UTC+00:00)

STARLINK-58 - Pass Details

Date: 14 October 2019
Orbit: 548 x 551 km, 53.0° (Epoch: 12 November)

Event Time Altitude Azimuth Distance (km) Brightness Sun altitude
Rises 17:51:42 0° 243° (WSW) 2,707 8.4 -11.5°
Reaches altitude 10° 17:53:56 10° 246° (WSW) 1,816 7.4 -11.9°
Maximum altitude 17:58:03 67° 329° (NNW) 597 3.9 -12.7°
Enters shadow 18:01:31 14° 51° (NE) 1,567 5.5 -13.3°
